Volver al catálogo

STARLINK-32768

ActivoComunicacionesVLEO
NORAD 62503·PAYLOAD·🇺🇸 United States

Lanzado Jan 6, 2025 desde Cape Canaveral Space Force Station

Loading…

Próximos Pases (próximas 24 horas)

TLE

ActualizadoSource: CelesTrak SupGP

Época: Sep 14, 2026, 22:36 UTC

1 62503C 25003S   26257.94215278  .00011904  00000+0  43124-3 0  2574
2 62503  43.0031 299.8612 0001482 270.4278 275.9501 15.27565250    19

Sigue STARLINK-32768 en tiempo real con AllMySat

Download on the App Store